TimeEST,TemperatureF,Dew PointF,Humidity,Sea Level PressureIn,VisibilityMPH,Wind Direction,Wind SpeedMPH,Gust SpeedMPH,PrecipitationIn,Events,Conditions,WindDirDegrees,DateUTC
12:52 AM,-11.0,-15.0,83,29.82,10.0,Calm,Calm,-,N/A,,Clear,0,2014-02-27 05:52:00
1:52 AM,-9.0,-14.1,79,29.81,10.0,Calm,Calm,-,N/A,,Clear,0,2014-02-27 06:52:00
2:52 AM,-7.1,-11.9,79,29.80,10.0,Calm,Calm,-,N/A,,Mostly Cloudy,0,2014-02-27 07:52:00
3:52 AM,-5.1,-11.0,76,29.79,10.0,Calm,Calm,-,N/A,,Overcast,0,2014-02-27 08:52:00
4:52 AM,-5.1,-11.0,76,29.77,10.0,Calm,Calm,-,N/A,,Overcast,0,2014-02-27 09:52:00
5:52 AM,-5.1,-11.0,76,29.75,10.0,Calm,Calm,-,N/A,,Overcast,0,2014-02-27 10:52:00
6:52 AM,-5.1,-9.9,80,29.73,10.0,Calm,Calm,-,N/A,,Overcast,0,2014-02-27 11:52:00
7:52 AM,-2.0,-7.1,79,29.71,10.0,Calm,Calm,-,N/A,,Overcast,0,2014-02-27 12:52:00
8:52 AM,3.0,-5.1,69,29.69,10.0,Calm,Calm,-,N/A,,Overcast,0,2014-02-27 13:52:00
9:52 AM,10.9,-6.0,47,29.67,10.0,SE,12.7,16.1,N/A,,Mostly Cloudy,140,2014-02-27 14:52:00
10:52 AM,15.1,-6.0,39,29.63,10.0,SSE,11.5,19.6,N/A,,Overcast,160,2014-02-27 15:52:00
11:52 AM,17.1,-6.0,36,29.60,10.0,South,9.2,-,N/A,,Overcast,180,2014-02-27 16:52:00
12:52 PM,17.1,-2.9,41,29.57,10.0,South,9.2,-,N/A,,Overcast,180,2014-02-27 17:52:00
1:52 PM,19.0,-2.9,38,29.56,10.0,SW,11.5,20.7,N/A,,Mostly Cloudy,220,2014-02-27 18:52:00
2:52 PM,19.0,-2.9,38,29.57,10.0,Variable,4.6,-,N/A,,Overcast,0,2014-02-27 19:52:00
3:52 PM,17.1,3.9,56,29.60,5.0,Variable,5.8,19.6,0.00,Snow,Light Snow,0,2014-02-27 20:52:00
4:52 PM,16.0,3.9,59,29.60,10.0,Calm,Calm,-,0.00,,Scattered Clouds,0,2014-02-27 21:52:00
5:52 PM,10.0,1.9,70,29.62,10.0,Calm,Calm,-,N/A,,Partly Cloudy,0,2014-02-27 22:52:00
6:52 PM,6.1,-0.0,76,29.64,10.0,Calm,Calm,-,N/A,,Overcast,0,2014-02-27 23:52:00
7:52 PM,5.0,-0.9,76,29.64,10.0,Calm,Calm,-,N/A,,Partly Cloudy,0,2014-02-28 00:52:00
8:50 PM,8.6,3.2,79,29.59,1.0,Variable,6.9,-,0.00,Snow,Light Snow,0,2014-02-28 01:50:00
8:52 PM,10.0,3.9,76,29.68,0.5,West,9.2,-,0.00,Snow,Snow,280,2014-02-28 01:52:00
9:00 PM,12.9,9.0,84,29.60,0.2,WNW,8.1,19.6,0.01,Fog-Snow,Snow,290,2014-02-28 02:00:00
9:12 PM,12.9,8.1,81,29.60,1.0,WNW,5.8,-,0.02,Snow,Light Snow,290,2014-02-28 02:12:00
9:16 PM,12.9,8.1,81,29.60,2.0,Variable,3.5,-,0.02,Snow,Light Snow,0,2014-02-28 02:16:00
9:25 PM,12.9,7.0,77,29.62,4.0,Variable,5.8,-,0.02,Snow,Light Snow,0,2014-02-28 02:25:00
9:37 PM,12.9,8.1,81,29.63,1.8,Variable,4.6,-,0.02,Snow,Light Snow,0,2014-02-28 02:37:00
9:46 PM,12.2,8.6,85,29.64,0.8,Variable,4.6,-,0.02,Snow,Light Snow,0,2014-02-28 02:46:00
9:47 PM,12.9,8.1,81,29.71,0.8,Variable,4.6,-,0.02,Snow,Light Snow,0,2014-02-28 02:47:00
9:57 PM,12.9,8.1,81,29.65,0.5,Variable,5.8,-,0.00,Snow,Snow,0,2014-02-28 02:57:00
10:05 PM,12.9,5.0,71,29.65,1.0,Variable,6.9,-,0.01,Snow,Light Snow,0,2014-02-28 03:05:00
10:08 PM,12.9,3.0,65,29.65,3.0,Variable,6.9,-,0.01,Snow,Light Snow,0,2014-02-28 03:08:00
10:22 PM,12.0,1.9,64,29.65,10.0,Calm,Calm,-,0.01,,Overcast,0,2014-02-28 03:22:00
10:52 PM,10.9,3.0,70,29.73,10.0,Variable,3.5,-,0.01,,Overcast,0,2014-02-28 03:52:00
11:19 PM,12.0,3.9,70,29.68,1.8,Variable,3.5,-,0.00,Snow,Light Snow,0,2014-02-28 04:19:00
11:22 PM,12.0,5.0,73,29.68,1.0,North,-9999.0,-,0.00,Snow,Light Snow,0,2014-02-28 04:22:00
11:29 PM,10.9,6.1,81,29.68,0.5,Variable,5.8,-,0.00,Snow,Snow,0,2014-02-28 04:29:00
11:40 PM,10.9,5.0,77,29.69,0.5,West,10.4,20.7,0.00,Snow,Snow,280,2014-02-28 04:40:00
11:52 PM,10.0,3.9,76,29.77,0.5,West,8.1,19.6,0.01,Snow,Snow,270,2014-02-28 04:52:00
11:56 PM,10.0,1.9,70,29.70,1.5,West,12.7,23.0,0.00,Snow,Light Snow,280,2014-02-28 04:56:00
11:59 PM,10.0,-0.0,64,29.70,4.0,Variable,6.9,23.0,0.00,Snow,Light Snow,0,2014-02-28 04:59:00